TGL9305 LFBZ-LICC

Flight info

Callsign TGL9305
Flight time 2h 13m
Altitude 37000
Route SOVOS G17 ORTEZ DCT TBO DCT PERDU N862 POSSY/N0445F360 M601 BCN N725 ORKUM M603 ELSAG DCT ALG/N0445F370 DCT QUENN DCT RONAB DCT BEKIV/N0359F190 M871 LIBRO
Aircraft B738/M-SDE2E3FGHIRWXY/LB1

Departure

Time 2026-04-28 09:47
Airport Biarritz Pays Basque airport (LFBZ)

Arrival

Time 2026-04-28 12:00
Airport Catania-Fontanarossa Airport (LICC)
Time Latitude Longitude Altitude Speed Heading
2026-04-28 09:29 43.47113 -1.53115 244 ft 0 kts 20°
2026-04-28 09:39 43.47112 -1.53121 244 ft 4 kts 334°
2026-04-28 09:39 43.47091 -1.53114 244 ft 4 kts 355°
2026-04-28 09:39 43.47066 -1.53105 244 ft 4 kts 322°
2026-04-28 09:40 43.47054 -1.53079 244 ft 4 kts 268°
2026-04-28 09:40 43.47055 -1.53067 244 ft 0 kts 264°
2026-04-28 09:43 43.47054 -1.53082 244 ft 4 kts 265°
2026-04-28 09:43 43.47049 -1.53133 244 ft 6 kts 257°
2026-04-28 09:43 43.47026 -1.53181 244 ft 6 kts 222°
2026-04-28 09:44 43.46983 -1.53202 244 ft 8 kts 181°
2026-04-28 09:44 43.46925 -1.53180 244 ft 10 kts 155°
2026-04-28 09:44 43.46855 -1.53160 245 ft 11 kts 205°
2026-04-28 09:44 43.46825 -1.53251 246 ft 11 kts 268°
2026-04-28 09:45 43.46823 -1.53369 246 ft 13 kts 269°
2026-04-28 09:45 43.46821 -1.53506 246 ft 15 kts 269°
2026-04-28 09:45 43.46838 -1.53642 244 ft 14 kts 304°
2026-04-28 09:45 43.46859 -1.53699 243 ft 4 kts 266°
2026-04-28 09:46 43.46837 -1.53719 244 ft 4 kts 190°
2026-04-28 09:46 43.46818 -1.53698 245 ft 4 kts 100°
2026-04-28 09:46 43.46819 -1.53661 245 ft 4 kts 89°
2026-04-28 09:46 43.46823 -1.53339 246 ft 73 kts 89°
2026-04-28 09:47 43.46837 -1.52285 239 ft 145 kts 89°
2026-04-28 09:47 43.46853 -1.50661 516 ft 180 kts 89°
2026-04-28 09:47 43.46858 -1.48981 1627 ft 167 kts 89°
2026-04-28 09:47 43.46866 -1.47389 2503 ft 174 kts 89°
2026-04-28 09:48 43.46831 -1.45582 2802 ft 203 kts 100°
2026-04-28 09:48 43.46499 -1.43567 3038 ft 228 kts 103°
2026-04-28 09:48 43.46132 -1.41372 3434 ft 245 kts 103°
2026-04-28 09:48 43.45749 -1.39022 3902 ft 261 kts 103°
2026-04-28 09:49 43.45354 -1.36567 4746 ft 264 kts 103°
2026-04-28 09:49 43.44958 -1.34073 5529 ft 270 kts 103°
2026-04-28 09:49 43.44557 -1.31536 6355 ft 273 kts 104°
2026-04-28 09:49 43.44146 -1.28926 7100 ft 278 kts 104°
2026-04-28 09:50 43.43734 -1.26302 7842 ft 283 kts 104°
2026-04-28 09:50 43.43319 -1.23659 8574 ft 289 kts 104°
2026-04-28 09:50 43.42886 -1.20898 9332 ft 295 kts 104°
2026-04-28 09:50 43.42454 -1.18153 10053 ft 300 kts 104°
2026-04-28 09:51 43.42002 -1.15291 10474 ft 316 kts 104°
2026-04-28 09:51 43.41530 -1.12219 10637 ft 340 kts 103°
2026-04-28 09:51 43.41096 -1.08927 10926 ft 358 kts 101°
2026-04-28 09:51 43.40673 -1.05524 11546 ft 364 kts 101°
2026-04-28 09:52 43.40247 -1.02077 12267 ft 367 kts 101°
2026-04-28 09:52 43.39811 -0.98610 12988 ft 370 kts 102°
2026-04-28 09:52 43.39362 -0.95108 13685 ft 374 kts 102°
2026-04-28 09:52 43.38903 -0.91568 14316 ft 378 kts 102°
2026-04-28 09:53 43.38452 -0.87994 14960 ft 381 kts 101°
2026-04-28 09:53 43.38037 -0.84380 15624 ft 384 kts 100°
2026-04-28 09:53 43.37632 -0.80739 16297 ft 387 kts 100°
2026-04-28 09:53 43.37217 -0.77062 16928 ft 391 kts 100°
2026-04-28 09:54 43.36792 -0.73362 17553 ft 394 kts 100°
2026-04-28 09:54 43.36461 -0.69605 18141 ft 398 kts 95°
2026-04-28 09:54 43.36296 -0.65793 18679 ft 402 kts 94°
2026-04-28 09:54 43.36173 -0.61944 19169 ft 406 kts 94°
2026-04-28 09:55 43.36057 -0.58053 19663 ft 409 kts 94°
2026-04-28 09:55 43.35934 -0.54126 20150 ft 413 kts 94°
2026-04-28 09:55 43.35801 -0.50172 20633 ft 416 kts 94°
2026-04-28 09:55 43.35658 -0.46188 21116 ft 420 kts 94°
2026-04-28 09:56 43.35508 -0.42163 21581 ft 423 kts 94°
2026-04-28 09:56 43.35353 -0.38108 22167 ft 427 kts 94°
2026-04-28 09:56 43.35194 -0.34021 22715 ft 432 kts 94°
2026-04-28 09:56 43.35032 -0.29886 23210 ft 436 kts 94°
2026-04-28 09:57 43.34867 -0.25706 23705 ft 439 kts 94°
2026-04-28 09:57 43.34700 -0.21512 24127 ft 442 kts 94°
2026-04-28 09:57 43.34530 -0.17283 24521 ft 445 kts 94°
2026-04-28 09:57 43.34358 -0.13026 24899 ft 447 kts 94°
2026-04-28 09:58 43.34184 -0.08762 25263 ft 449 kts 95°
2026-04-28 09:58 43.34007 -0.04456 25619 ft 452 kts 95°
2026-04-28 09:58 43.33827 -0.00133 25960 ft 455 kts 95°
2026-04-28 09:58 43.33386 0.04160 26247 ft 455 kts 109°
2026-04-28 09:59 43.32032 0.08055 26581 ft 451 kts 128°
2026-04-28 09:59 43.29936 0.11192 26937 ft 445 kts 144°
2026-04-28 09:59 43.28243 0.12760 27168 ft 442 kts 155°
2026-04-28 09:59 43.24411 0.14639 27604 ft 437 kts 175°
2026-04-28 10:00 43.22413 0.14858 27823 ft 435 kts 182°
2026-04-28 10:00 43.19377 0.14891 28171 ft 436 kts 183°
2026-04-28 10:00 43.16342 0.14861 28475 ft 438 kts 184°
2026-04-28 10:00 43.13283 0.14826 28748 ft 441 kts 183°
2026-04-28 10:01 43.10207 0.14807 29050 ft 442 kts 183°
2026-04-28 10:01 43.07118 0.14808 29351 ft 444 kts 183°
2026-04-28 10:01 43.04017 0.14824 29614 ft 446 kts 182°
2026-04-28 10:01 43.00912 0.14849 29896 ft 447 kts 182°
2026-04-28 10:02 42.97799 0.14878 30223 ft 448 kts 182°
2026-04-28 10:02 42.94695 0.14908 30587 ft 445 kts 182°
2026-04-28 10:02 42.91599 0.14937 30885 ft 444 kts 182°
2026-04-28 10:02 42.88512 0.14967 31226 ft 443 kts 182°
2026-04-28 10:03 42.85437 0.14995 31567 ft 441 kts 182°
2026-04-28 10:03 42.82371 0.15021 31910 ft 440 kts 182°
2026-04-28 10:03 42.79312 0.15047 32240 ft 439 kts 182°
2026-04-28 10:03 42.76270 0.15074 32614 ft 436 kts 182°
2026-04-28 10:04 42.73246 0.15100 32932 ft 434 kts 182°
2026-04-28 10:04 42.70220 0.15126 33172 ft 435 kts 182°
2026-04-28 10:04 42.67200 0.15153 33504 ft 434 kts 182°
2026-04-28 10:04 42.64187 0.15181 33862 ft 431 kts 182°
2026-04-28 10:05 42.61225 0.15209 34111 ft 431 kts 182°
2026-04-28 10:05 42.58192 0.15237 34332 ft 431 kts 182°
2026-04-28 10:05 42.55193 0.15263 34558 ft 431 kts 182°
2026-04-28 10:05 42.52197 0.15290 34769 ft 431 kts 182°
2026-04-28 10:06 42.49199 0.15316 34953 ft 431 kts 182°
2026-04-28 10:06 42.46197 0.15343 35135 ft 432 kts 182°
2026-04-28 10:06 42.43195 0.15369 35348 ft 431 kts 182°
2026-04-28 10:06 42.40235 0.15396 35563 ft 431 kts 182°
2026-04-28 10:07 42.37240 0.15423 35742 ft 431 kts 182°
2026-04-28 10:07 42.34239 0.15450 35915 ft 431 kts 182°
2026-04-28 10:07 42.31237 0.15476 36102 ft 431 kts 182°
2026-04-28 10:07 42.28238 0.15503 36315 ft 431 kts 182°
2026-04-28 10:08 42.25240 0.15530 36498 ft 431 kts 182°
2026-04-28 10:08 42.22244 0.15557 36667 ft 431 kts 182°
2026-04-28 10:08 42.19245 0.15583 36863 ft 431 kts 182°
2026-04-28 10:08 42.16255 0.15610 36985 ft 428 kts 182°
2026-04-28 10:09 42.10291 0.15914 36982 ft 434 kts 169°
2026-04-28 10:09 42.07455 0.17367 37024 ft 442 kts 152°
2026-04-28 10:09 42.04991 0.19884 37017 ft 450 kts 137°
2026-04-28 10:10 42.03108 0.23273 37012 ft 457 kts 121°
2026-04-28 10:10 42.01681 0.27106 37016 ft 460 kts 118°
2026-04-28 10:10 41.98917 0.34900 37012 ft 463 kts 119°
2026-04-28 10:11 41.96024 0.42631 36997 ft 462 kts 120°
2026-04-28 10:11 41.93162 0.50264 36998 ft 454 kts 120°
2026-04-28 10:12 41.90307 0.57792 37013 ft 452 kts 120°
2026-04-28 10:12 41.87445 0.65287 37015 ft 451 kts 120°
2026-04-28 10:13 41.84588 0.72767 37013 ft 451 kts 120°
2026-04-28 10:13 41.81723 0.80259 37007 ft 452 kts 120°
2026-04-28 10:14 41.78853 0.87760 37016 ft 452 kts 120°
2026-04-28 10:14 41.75974 0.95265 37006 ft 454 kts 120°
2026-04-28 10:15 41.73079 1.02793 37010 ft 455 kts 120°
2026-04-28 10:15 41.70190 1.10287 37008 ft 457 kts 120°
2026-04-28 10:16 41.67270 1.17842 37005 ft 457 kts 120°
2026-04-28 10:16 41.64345 1.25399 37011 ft 458 kts 120°
2026-04-28 10:17 41.61414 1.32955 37016 ft 458 kts 120°
2026-04-28 10:17 41.58482 1.40499 37019 ft 458 kts 120°
2026-04-28 10:18 41.55542 1.48040 37020 ft 457 kts 120°
2026-04-28 10:18 41.52591 1.55556 37022 ft 457 kts 120°
2026-04-28 10:19 41.49627 1.63046 37015 ft 456 kts 120°
2026-04-28 10:19 41.46672 1.70515 37030 ft 455 kts 120°
2026-04-28 10:20 41.43723 1.77993 37033 ft 455 kts 120°
2026-04-28 10:20 41.40778 1.85447 37042 ft 455 kts 120°
2026-04-28 10:21 41.37828 1.92889 37043 ft 454 kts 120°
2026-04-28 10:21 41.34874 2.00324 37044 ft 454 kts 120°
2026-04-28 10:22 41.31921 2.07739 37052 ft 454 kts 119°
2026-04-28 10:22 41.29769 2.15637 37061 ft 457 kts 104°
2026-04-28 10:23 41.28453 2.23912 37045 ft 458 kts 103°
2026-04-28 10:23 41.27150 2.32192 37053 ft 458 kts 103°
2026-04-28 10:24 41.25800 2.40480 37036 ft 459 kts 103°
2026-04-28 10:24 41.24421 2.48758 37040 ft 459 kts 104°
2026-04-28 10:25 41.23040 2.56986 37027 ft 460 kts 104°
2026-04-28 10:25 41.21644 2.65270 37034 ft 460 kts 104°
2026-04-28 10:26 41.20241 2.73563 37036 ft 460 kts 104°
2026-04-28 10:26 41.18832 2.81858 37040 ft 461 kts 104°
2026-04-28 10:27 41.17416 2.90154 37039 ft 461 kts 104°
2026-04-28 10:27 41.15994 2.98444 37033 ft 461 kts 104°
2026-04-28 10:28 41.14566 3.06734 37034 ft 461 kts 104°
2026-04-28 10:29 41.12414 3.19153 37027 ft 461 kts 104°
2026-04-28 10:29 41.10971 3.27436 37040 ft 461 kts 104°
2026-04-28 10:30 41.09523 3.35708 37042 ft 461 kts 104°
2026-04-28 10:30 41.08069 3.43980 37042 ft 461 kts 104°
2026-04-28 10:31 41.06612 3.52239 37022 ft 461 kts 104°
2026-04-28 10:31 41.05139 3.60498 37032 ft 460 kts 104°
2026-04-28 10:32 41.03656 3.68748 37042 ft 460 kts 104°
2026-04-28 10:32 41.02169 3.76996 37038 ft 461 kts 104°
2026-04-28 10:33 41.00677 3.85242 37037 ft 461 kts 104°
2026-04-28 10:33 40.99192 3.93434 37038 ft 461 kts 104°
2026-04-28 10:34 40.97682 4.01733 37041 ft 461 kts 104°
2026-04-28 10:34 40.96178 4.09964 37039 ft 461 kts 104°
2026-04-28 10:35 40.94676 4.18149 37042 ft 461 kts 104°
2026-04-28 10:35 40.93158 4.26388 37040 ft 461 kts 104°
2026-04-28 10:36 40.91633 4.34624 37041 ft 461 kts 104°
2026-04-28 10:36 40.90104 4.42860 37042 ft 461 kts 104°
2026-04-28 10:37 40.88576 4.51092 37041 ft 461 kts 104°
2026-04-28 10:37 40.87062 4.59336 37041 ft 462 kts 104°
2026-04-28 10:38 40.85572 4.67588 37042 ft 462 kts 100°
2026-04-28 10:38 40.84705 4.75978 37043 ft 461 kts 96°
2026-04-28 10:39 40.84006 4.84410 37047 ft 462 kts 96°
2026-04-28 10:39 40.83272 4.92824 37043 ft 462 kts 96°
2026-04-28 10:40 40.82494 5.01238 37048 ft 462 kts 96°
2026-04-28 10:40 40.81695 5.09651 37034 ft 462 kts 97°
2026-04-28 10:41 40.80888 5.18066 37045 ft 462 kts 97°
2026-04-28 10:41 40.80078 5.26468 37047 ft 462 kts 97°
2026-04-28 10:42 40.79262 5.34877 37035 ft 462 kts 97°
2026-04-28 10:42 40.78440 5.43283 37050 ft 462 kts 97°
2026-04-28 10:43 40.77612 5.51688 37048 ft 462 kts 97°
2026-04-28 10:43 40.76778 5.60096 37045 ft 462 kts 97°
2026-04-28 10:44 40.75936 5.68509 37050 ft 463 kts 97°
2026-04-28 10:44 40.75088 5.76918 37050 ft 463 kts 97°
2026-04-28 10:45 40.74240 5.85278 37053 ft 463 kts 97°
2026-04-28 10:45 40.73379 5.93692 37051 ft 463 kts 97°
2026-04-28 10:46 40.72512 6.02117 37053 ft 464 kts 97°
2026-04-28 10:46 40.71639 6.10534 37051 ft 464 kts 97°
2026-04-28 10:47 40.70758 6.18960 37046 ft 464 kts 97°
2026-04-28 10:47 40.70018 6.25957 37043 ft 464 kts 97°
2026-04-28 10:48 40.69122 6.34387 37036 ft 464 kts 97°
2026-04-28 10:48 40.68068 6.44230 37044 ft 464 kts 97°
2026-04-28 10:49 40.67313 6.51228 37050 ft 464 kts 97°
2026-04-28 10:49 40.66401 6.59645 37034 ft 464 kts 97°
2026-04-28 10:50 40.65481 6.68063 37037 ft 464 kts 97°
2026-04-28 10:50 40.64557 6.76469 37037 ft 464 kts 97°
2026-04-28 10:51 40.63626 6.84877 37054 ft 464 kts 98°
2026-04-28 10:51 40.62690 6.93271 37050 ft 464 kts 98°
2026-04-28 10:52 40.61748 7.01664 37049 ft 463 kts 98°
2026-04-28 10:52 40.60800 7.10052 37040 ft 463 kts 98°
2026-04-28 10:53 40.59847 7.18436 37047 ft 463 kts 98°
2026-04-28 10:53 40.58888 7.26812 37043 ft 463 kts 98°
2026-04-28 10:54 40.57923 7.35192 37038 ft 463 kts 98°
2026-04-28 10:54 40.56953 7.43558 37043 ft 463 kts 98°
2026-04-28 10:55 40.56594 7.51976 37036 ft 461 kts 83°
2026-04-28 10:55 40.57360 7.60343 37044 ft 461 kts 82°
2026-04-28 10:56 40.58151 7.68713 37047 ft 461 kts 82°
2026-04-28 10:56 40.58884 7.77097 37043 ft 462 kts 83°
2026-04-28 10:57 40.59586 7.85438 37050 ft 462 kts 83°
2026-04-28 10:57 40.60288 7.93836 37045 ft 462 kts 83°
2026-04-28 10:58 40.60850 8.00595 37051 ft 462 kts 83°
2026-04-28 10:58 40.60879 8.00941 37050 ft 462 kts 83°
2026-04-28 10:59 40.61553 8.09105 37026 ft 462 kts 83°
2026-04-28 10:59 40.62241 8.17504 37020 ft 462 kts 83°
2026-04-28 11:00 40.62447 8.25945 37021 ft 463 kts 96°
2026-04-28 11:00 40.61063 8.34211 37025 ft 463 kts 104°
2026-04-28 11:01 40.59415 8.42402 37023 ft 463 kts 105°
2026-04-28 11:01 40.57788 8.50602 37022 ft 463 kts 104°
2026-04-28 11:02 40.56191 8.58809 37030 ft 463 kts 104°
2026-04-28 11:02 40.54603 8.67009 37036 ft 463 kts 104°
2026-04-28 11:03 40.53012 8.75200 37036 ft 462 kts 104°
2026-04-28 11:03 40.51415 8.83379 37030 ft 462 kts 104°
2026-04-28 11:04 40.49811 8.91552 37038 ft 461 kts 104°
2026-04-28 11:04 40.48206 8.99700 37041 ft 461 kts 104°
2026-04-28 11:05 40.46597 9.07836 37035 ft 460 kts 104°
2026-04-28 11:05 40.44983 9.15968 37041 ft 460 kts 104°
2026-04-28 11:06 40.44174 9.20028 37035 ft 460 kts 104°
2026-04-28 11:06 40.43005 9.25880 37038 ft 460 kts 104°
2026-04-28 11:07 40.42074 9.30533 37042 ft 460 kts 105°
2026-04-28 11:07 40.40446 9.38644 37046 ft 460 kts 105°
2026-04-28 11:08 40.38811 9.46751 37049 ft 459 kts 105°
2026-04-28 11:08 40.37172 9.54853 37061 ft 460 kts 105°
2026-04-28 11:09 40.35524 9.62962 37059 ft 460 kts 105°
2026-04-28 11:09 40.33881 9.71017 37065 ft 461 kts 105°
2026-04-28 11:10 40.32221 9.79126 37065 ft 461 kts 105°
2026-04-28 11:10 40.30556 9.87225 37068 ft 461 kts 105°
2026-04-28 11:11 40.28882 9.95333 37070 ft 461 kts 105°
2026-04-28 11:11 40.27205 10.03432 37074 ft 461 kts 105°
2026-04-28 11:12 40.25519 10.11536 37067 ft 461 kts 105°
2026-04-28 11:12 40.23828 10.19639 37076 ft 462 kts 105°
2026-04-28 11:13 40.22127 10.27754 37071 ft 462 kts 105°
2026-04-28 11:13 40.20423 10.35856 37078 ft 462 kts 105°
2026-04-28 11:14 40.18710 10.43970 37076 ft 463 kts 105°
2026-04-28 11:14 40.16993 10.52079 37078 ft 463 kts 105°
2026-04-28 11:15 40.15267 10.60188 37074 ft 463 kts 105°
2026-04-28 11:15 40.13536 10.68299 37079 ft 463 kts 105°
2026-04-28 11:16 40.11800 10.76404 37075 ft 463 kts 105°
2026-04-28 11:16 40.10059 10.84508 37082 ft 463 kts 105°
2026-04-28 11:17 40.08311 10.92613 37080 ft 464 kts 106°
2026-04-28 11:17 40.06557 11.00715 37085 ft 464 kts 106°
2026-04-28 11:18 40.04797 11.08814 37082 ft 464 kts 106°
2026-04-28 11:18 40.03032 11.16909 37084 ft 464 kts 106°
2026-04-28 11:19 40.01273 11.24942 37083 ft 464 kts 106°
2026-04-28 11:19 39.99496 11.33030 37000 ft 466 kts 106°
2026-04-28 11:20 39.97697 11.41191 37085 ft 471 kts 106°
2026-04-28 11:20 39.95867 11.49458 37100 ft 478 kts 106°
2026-04-28 11:21 39.94009 11.57821 37092 ft 482 kts 106°
2026-04-28 11:21 39.92130 11.66248 37092 ft 485 kts 106°
2026-04-28 11:22 39.90246 11.74672 37074 ft 481 kts 106°
2026-04-28 11:22 39.88376 11.82954 37074 ft 475 kts 109°
2026-04-28 11:22 39.87038 11.86873 37079 ft 473 kts 122°
2026-04-28 11:23 39.85126 11.90331 37093 ft 470 kts 134°
2026-04-28 11:23 39.82760 11.93238 37079 ft 466 kts 146°
2026-04-28 11:23 39.80128 11.95678 37104 ft 465 kts 148°
2026-04-28 11:24 39.74787 12.00459 37087 ft 467 kts 148°
2026-04-28 11:24 39.69433 12.05278 37084 ft 469 kts 148°
2026-04-28 11:25 39.64079 12.10159 37088 ft 471 kts 147°
2026-04-28 11:25 39.58723 12.15063 37087 ft 473 kts 147°
2026-04-28 11:26 39.53332 12.19994 37082 ft 475 kts 148°
2026-04-28 11:26 39.47924 12.24928 37083 ft 476 kts 148°
2026-04-28 11:27 39.42493 12.29872 37081 ft 477 kts 148°
2026-04-28 11:27 39.37059 12.34808 37082 ft 477 kts 148°
2026-04-28 11:28 39.31623 12.39737 37078 ft 477 kts 148°
2026-04-28 11:28 39.26183 12.44660 37079 ft 477 kts 148°
2026-04-28 11:29 39.20786 12.49534 37075 ft 476 kts 148°
2026-04-28 11:29 39.15354 12.54431 37076 ft 476 kts 148°
2026-04-28 11:30 39.13107 12.56453 37080 ft 475 kts 148°
2026-04-28 11:30 39.04977 12.63758 37079 ft 475 kts 148°
2026-04-28 11:31 38.99561 12.68612 37077 ft 475 kts 149°
2026-04-28 11:31 38.94140 12.73463 37073 ft 474 kts 149°
2026-04-28 11:32 38.91472 12.75850 37047 ft 460 kts 149°
2026-04-28 11:32 38.88897 12.78156 37052 ft 445 kts 149°
2026-04-28 11:32 38.83907 12.82610 36761 ft 435 kts 149°
2026-04-28 11:33 38.81400 12.84834 35894 ft 444 kts 149°
2026-04-28 11:33 38.78814 12.87123 34686 ft 461 kts 149°
2026-04-28 11:33 38.76117 12.89508 33674 ft 475 kts 149°
2026-04-28 11:33 38.73413 12.91908 33136 ft 472 kts 149°
2026-04-28 11:34 38.70725 12.94298 32709 ft 467 kts 149°
2026-04-28 11:34 38.68065 12.96662 32251 ft 464 kts 149°
2026-04-28 11:34 38.65429 12.99000 31828 ft 460 kts 149°
2026-04-28 11:34 38.62812 13.01318 31414 ft 456 kts 149°
2026-04-28 11:35 38.60216 13.03614 31009 ft 452 kts 149°
2026-04-28 11:35 38.58506 13.05124 30741 ft 449 kts 149°
2026-04-28 11:35 38.55944 13.07385 30349 ft 446 kts 149°
2026-04-28 11:35 38.53401 13.09626 29907 ft 442 kts 149°
2026-04-28 11:36 38.50879 13.11848 29459 ft 438 kts 149°
2026-04-28 11:36 38.48382 13.14046 29052 ft 433 kts 149°
2026-04-28 11:36 38.45912 13.16219 28621 ft 429 kts 149°
2026-04-28 11:36 38.43466 13.18368 28224 ft 425 kts 149°
2026-04-28 11:37 38.41043 13.20495 27807 ft 421 kts 149°
2026-04-28 11:37 38.38641 13.22602 27409 ft 417 kts 149°
2026-04-28 11:37 38.36260 13.24689 27011 ft 413 kts 149°
2026-04-28 11:37 38.33904 13.26751 26621 ft 410 kts 149°
2026-04-28 11:38 38.31563 13.28800 26237 ft 407 kts 149°
2026-04-28 11:38 38.29238 13.30832 25852 ft 404 kts 149°
2026-04-28 11:38 38.26936 13.32843 25474 ft 401 kts 149°
2026-04-28 11:38 38.24645 13.34843 25093 ft 398 kts 149°
2026-04-28 11:39 38.22368 13.36829 24722 ft 396 kts 149°
2026-04-28 11:39 38.20105 13.38802 24346 ft 393 kts 149°
2026-04-28 11:39 38.17854 13.40762 23981 ft 391 kts 149°
2026-04-28 11:39 38.15614 13.42711 23588 ft 390 kts 149°
2026-04-28 11:40 38.13414 13.44625 23151 ft 387 kts 149°
2026-04-28 11:40 38.11196 13.46552 22757 ft 384 kts 149°
2026-04-28 11:40 38.09001 13.48458 22370 ft 381 kts 149°
2026-04-28 11:40 38.06816 13.50354 21993 ft 379 kts 149°
2026-04-28 11:41 38.04650 13.52233 21629 ft 375 kts 149°
2026-04-28 11:41 38.02503 13.54093 21267 ft 373 kts 149°
2026-04-28 11:41 38.00373 13.55937 20912 ft 370 kts 149°
2026-04-28 11:41 37.98253 13.57773 20552 ft 368 kts 149°
2026-04-28 11:42 37.96138 13.59601 20187 ft 366 kts 148°
2026-04-28 11:42 37.94039 13.61415 19824 ft 364 kts 148°
2026-04-28 11:42 37.91951 13.63218 19471 ft 362 kts 148°
2026-04-28 11:42 37.89890 13.65032 19123 ft 361 kts 144°
2026-04-28 11:43 37.88110 13.67271 18762 ft 362 kts 130°
2026-04-28 11:43 37.86744 13.69946 18416 ft 363 kts 116°
2026-04-28 11:43 37.85759 13.72879 18049 ft 361 kts 112°
2026-04-28 11:43 37.84853 13.75827 17658 ft 359 kts 112°
2026-04-28 11:44 37.83962 13.78764 17292 ft 356 kts 112°
2026-04-28 11:44 37.83067 13.81679 16918 ft 354 kts 112°
2026-04-28 11:44 37.82169 13.84560 16591 ft 351 kts 112°
2026-04-28 11:44 37.81268 13.87418 16253 ft 350 kts 112°
2026-04-28 11:45 37.80366 13.90267 15892 ft 348 kts 113°
2026-04-28 11:45 37.79465 13.93101 15540 ft 347 kts 113°
2026-04-28 11:45 37.78566 13.95924 15198 ft 345 kts 113°
2026-04-28 11:45 37.77672 13.98726 14862 ft 343 kts 113°
2026-04-28 11:46 37.76779 14.01515 14521 ft 341 kts 113°
2026-04-28 11:46 37.75881 14.04292 14165 ft 341 kts 113°
2026-04-28 11:46 37.74979 14.07070 13778 ft 342 kts 113°
2026-04-28 11:46 37.74078 14.09839 13378 ft 340 kts 113°
2026-04-28 11:47 37.73180 14.12596 13014 ft 338 kts 113°
2026-04-28 11:47 37.72290 14.15334 12676 ft 336 kts 113°
2026-04-28 11:47 37.71399 14.18063 12277 ft 335 kts 113°
2026-04-28 11:47 37.70517 14.20779 11974 ft 334 kts 113°
2026-04-28 11:48 37.69634 14.23485 11597 ft 332 kts 113°
2026-04-28 11:48 37.68760 14.26168 11279 ft 330 kts 113°
2026-04-28 11:48 37.67887 14.28836 10957 ft 328 kts 113°
2026-04-28 11:48 37.67021 14.31482 10628 ft 326 kts 112°
2026-04-28 11:49 37.66161 14.34120 10339 ft 322 kts 113°
2026-04-28 11:49 37.65320 14.36686 10213 ft 312 kts 113°
2026-04-28 11:49 37.64501 14.39186 10106 ft 304 kts 113°
2026-04-28 11:49 37.63701 14.41623 9874 ft 301 kts 113°
2026-04-28 11:50 37.62903 14.44053 9623 ft 297 kts 113°
2026-04-28 11:50 37.62116 14.46451 9332 ft 295 kts 112°
2026-04-28 11:50 37.61462 14.48918 8941 ft 298 kts 105°
2026-04-28 11:50 37.60917 14.51452 8562 ft 301 kts 105°
2026-04-28 11:51 37.60373 14.53993 8244 ft 300 kts 105°
2026-04-28 11:51 37.59814 14.56518 7961 ft 298 kts 106°
2026-04-28 11:51 37.59255 14.58997 7666 ft 298 kts 106°
2026-04-28 11:51 37.58616 14.61508 7354 ft 297 kts 117°
2026-04-28 11:52 37.57271 14.63372 7031 ft 293 kts 151°
2026-04-28 11:52 37.55342 14.64007 6731 ft 289 kts 184°
2026-04-28 11:52 37.53419 14.63401 6519 ft 283 kts 198°
2026-04-28 11:52 37.51529 14.62728 6209 ft 281 kts 192°
2026-04-28 11:53 37.49607 14.62332 5921 ft 280 kts 186°
2026-04-28 11:53 37.47670 14.62178 5633 ft 278 kts 182°
2026-04-28 11:53 37.45779 14.62510 5324 ft 277 kts 155°
2026-04-28 11:53 37.44352 14.64055 5161 ft 271 kts 122°
2026-04-28 11:54 37.43824 14.66282 5049 ft 265 kts 96°
2026-04-28 11:54 37.43734 14.68577 4901 ft 260 kts 92°
2026-04-28 11:54 37.43767 14.70822 4789 ft 254 kts 88°
2026-04-28 11:54 37.43909 14.73022 4645 ft 249 kts 85°
2026-04-28 11:55 37.44082 14.75125 4590 ft 234 kts 85°
2026-04-28 11:55 37.44247 14.77135 4344 ft 229 kts 85°
2026-04-28 11:55 37.44411 14.79113 4069 ft 226 kts 86°
2026-04-28 11:55 37.44571 14.81071 3786 ft 223 kts 86°
2026-04-28 11:56 37.44720 14.82995 3499 ft 219 kts 86°
2026-04-28 11:56 37.44879 14.84886 3225 ft 216 kts 86°
2026-04-28 11:56 37.45029 14.86727 2910 ft 205 kts 87°
2026-04-28 11:56 37.45171 14.88473 2659 ft 200 kts 87°
2026-04-28 11:57 37.45308 14.90164 2440 ft 188 kts 87°
2026-04-28 11:57 37.45439 14.91763 2147 ft 175 kts 86°
2026-04-28 11:57 37.45551 14.93224 2049 ft 161 kts 86°
2026-04-28 11:57 37.45663 14.94646 1698 ft 163 kts 87°
2026-04-28 11:58 37.45780 14.96006 1548 ft 154 kts 87°
2026-04-28 11:58 37.45902 14.97348 1338 ft 153 kts 87°
2026-04-28 11:58 37.46009 14.98644 1090 ft 144 kts 89°
2026-04-28 11:58 37.46117 14.99888 886 ft 141 kts 85°
2026-04-28 11:59 37.46219 15.01113 741 ft 144 kts 87°
2026-04-28 11:59 37.46320 15.02367 583 ft 147 kts 85°
2026-04-28 11:59 37.46430 15.03676 376 ft 147 kts 84°
2026-04-28 11:59 37.46537 15.04932 161 ft 145 kts 84°
2026-04-28 12:00 37.46637 15.06152 38 ft 130 kts 84°
2026-04-28 12:00 37.46716 15.07092 32 ft 86 kts 84°
2026-04-28 12:00 37.46766 15.07554 30 ft 31 kts 72°
2026-04-28 12:00 37.46837 15.07741 30 ft 17 kts 56°
2026-04-28 12:01 37.46917 15.07805 28 ft 14 kts 340°
2026-04-28 12:01 37.46934 15.07694 31 ft 13 kts 263°
2026-04-28 12:01 37.46923 15.07580 32 ft 13 kts 264°
2026-04-28 12:01 37.46914 15.07469 32 ft 13 kts 264°
2026-04-28 12:02 37.46905 15.07361 32 ft 12 kts 264°
2026-04-28 12:02 37.46896 15.07255 33 ft 12 kts 263°
2026-04-28 12:02 37.46887 15.07152 34 ft 12 kts 264°
2026-04-28 12:02 37.46879 15.07049 31 ft 13 kts 264°
2026-04-28 12:03 37.46869 15.06933 31 ft 14 kts 264°
2026-04-28 12:03 37.46859 15.06816 31 ft 13 kts 264°
2026-04-28 12:03 37.46849 15.06703 32 ft 13 kts 264°
2026-04-28 12:03 37.46840 15.06593 33 ft 12 kts 264°
2026-04-28 12:04 37.46834 15.06518 33 ft 4 kts 263°
2026-04-28 12:04 37.46844 15.06491 31 ft 4 kts 339°
2026-04-28 12:04 37.46875 15.06497 32 ft 5 kts 18°
2026-04-28 12:04 37.46910 15.06511 31 ft 5 kts 18°
2026-04-28 12:05 37.46933 15.06521 31 ft 2 kts 18°
2026-04-28 12:05 37.46942 15.06524 31 ft 1 kts 18°
2026-04-28 12:05 37.46948 15.06527 31 ft 1 kts 18°
2026-04-28 12:05 37.46950 15.06527 31 ft 0 kts 18°